CDT,Max TemperatureF,Mean TemperatureF,Min TemperatureF,Max Dew PointF,MeanDew PointF,Min DewpointF,Max Humidity, Mean Humidity, Min Humidity, Max Sea Level PressureIn, Mean Sea Level PressureIn, Min Sea Level PressureIn, Max VisibilityMiles, Mean VisibilityMiles, Min VisibilityMiles, Max Wind SpeedMPH, Mean Wind SpeedMPH, Max Gust SpeedMPH,PrecipitationIn, CloudCover, Events, WindDirDegrees
2012-10-1,82,70,57,58,53,44,93,63,26,30.05,29.95,29.88,10,10,10,17,9,24,0.02,1,,15
2012-10-2,80,67,55,56,52,49,90,60,37,30.04,29.95,29.83,10,10,10,10,4,,0.00,1,,121
2012-10-3,93,75,57,56,49,32,78,51,12,29.84,29.80,29.73,10,10,10,13,9,,0.00,0,,169
2012-10-4,78,66,55,57,49,43,93,59,32,30.17,30.02,29.84,10,9,6,23,8,29,0.00,1,,52
2012-10-5,86,69,52,61,55,50,94,72,31,30.13,29.99,29.83,10,10,4,18,5,22,0.00,2,,87
2012-10-6,64,56,48,56,47,35,93,76,53,30.21,30.07,29.91,10,8,2,18,13,24,0.00,6,Rain,56
2012-10-7,55,49,44,37,33,28,71,57,48,30.27,30.19,30.09,10,10,10,17,11,22,0.00,7,,87
2012-10-8,66,54,41,49,43,36,87,71,52,30.19,30.07,29.92,10,10,10,12,5,17,0.00,2,,136
2012-10-9,91,68,46,54,46,33,97,58,13,29.96,29.88,29.79,10,10,8,10,5,,0.00,0,,163
2012-10-10,72,63,55,57,51,44,93,69,51,30.19,30.02,29.87,10,10,10,17,7,24,0.00,2,,65
2012-10-11,87,72,59,65,60,54,90,72,41,30.10,29.98,29.86,10,10,10,17,8,25,0.00,3,,120
2012-10-12,86,78,69,66,64,61,90,69,48,30.09,29.91,29.83,10,10,9,20,14,29,0.00,1,,136
2012-10-13,87,73,60,61,46,23,84,46,13,30.04,29.87,29.77,10,10,10,26,14,36,0.00,1,Thunderstorm,215
2012-10-14,81,64,48,41,37,35,66,40,20,30.18,30.07,29.95,10,10,10,16,6,16,0.00,0,,61
2012-10-15,80,64,48,52,45,41,77,51,30,30.11,30.01,29.87,10,10,10,15,6,20,0.00,0,,135
2012-10-16,87,74,63,55,50,42,72,48,23,29.89,29.73,29.61,10,10,10,17,8,21,0.00,0,,206
2012-10-17,91,70,48,48,38,28,80,37,11,29.73,29.66,29.61,10,10,10,16,7,,0.00,0,,278
2012-10-18,78,64,51,41,36,33,57,40,21,29.99,29.88,29.73,10,10,10,10,6,,0.00,0,,65
2012-10-19,80,63,46,46,40,34,66,45,24,29.99,29.90,29.80,10,10,6,10,6,,0.00,0,,126
2012-10-20,90,66,44,51,45,40,85,53,19,29.82,29.75,29.68,10,10,10,9,5,,0.00,0,,166
2012-10-21,91,71,51,53,45,34,89,49,13,29.83,29.76,29.70,10,10,10,15,5,23,0.00,0,,223
2012-10-22,82,70,59,61,54,46,94,62,31,30.00,29.83,29.76,10,10,1,25,6,50,0.01,1,Rain-Thunderstorm,199
2012-10-23,87,71,55,62,54,42,100,68,21,29.95,29.82,29.74,10,8,0,14,5,,0.00,2,Fog,155
2012-10-24,89,76,62,64,62,59,96,70,37,29.81,29.72,29.62,10,10,8,16,10,22,0.00,0,,140
2012-10-25,73,64,53,63,48,35,97,61,26,30.14,29.86,29.66,10,10,6,18,10,25,0.00,0,,69
2012-10-26,60,49,39,35,30,19,75,47,28,30.34,30.23,30.08,10,10,10,17,10,24,0.00,1,,44
2012-10-27,55,46,36,24,20,9,62,36,17,30.29,30.20,30.07,10,10,10,13,8,17,0.00,2,,109
2012-10-28,66,50,34,34,28,22,73,44,26,30.23,30.13,30.04,10,10,10,13,7,16,0.00,0,,108
2012-10-29,75,57,39,39,36,33,79,48,23,30.14,30.05,29.96,10,10,10,12,7,,0.00,0,,121
2012-10-30,82,58,37,37,33,26,79,46,14,30.01,29.95,29.88,10,10,10,9,5,,0.00,0,,66
2012-10-31,80,59,39,46,37,31,83,50,17,30.06,29.99,29.94,10,10,10,10,6,16,0.00,0,,82